Flag for U.S.A. Weather past 2 weeks in Dayton, Ohio, U.S.A.

Now
76 °F

Passing clouds.


Feels Like: 78 °F
Forecast: 70 / 84 °F
Wind: 9 mph from South

Location: Dayton / Wright-Patterson Air Force Base

Current Time: May 29, 2015 at 10:25:44 PM

Latest Report: May 29, 2015 at 9:58 PM


Visibility: 10 mi

Pressure: 30.05 "Hg

Humidity: 70%

Dew point: 65 °F

Location of DaytonLocation

Historic Weather in Dayton — Graph

°F

Dayton temperature yesterday

Maximum temperature yesterday: 83 °F (at 4:58 PM)
Minimum temperature yesterday: 62 °F (at 5:58 AM)
Average temperature yesterday: 74 °F

Past Weeks' High & Low Weather Summary

 TemperatureHumidityPressure
High86 °F (May 26, 2:58 PM)100% (May 16, 3:58 AM)30.40 "Hg (May 16, 3:58 AM)
Low42 °F (May 20, 6:58 AM)28% (May 23, 3:58 PM)29.96 "Hg (May 26, 3:58 PM)
Average67 °F71%30.13 "Hg
* Reported May 14 8:58 PM — May 29 8:58 PM, Dayton, Weather by CustomWeather, © 2015

Note: Actual official high and low records may vary slightly from our data, if they occured in-between our weather recording intervals... More about our weather records

Advertising

Dayton weather history for previous 24 hours

 ConditionsComfort  
Time TempWeatherWind HumidityBarometerVisibility
8:58 PM
Fri, May 29
78 °FSunny.10 mph64%30.04 "Hg10 mi
7:58 PM80 °FPassing clouds.10 mph60%30.04 "Hg10 mi
6:58 PM83 °FScattered clouds.15 mph54%30.04 "Hg10 mi
5:58 PM85 °FPassing clouds.15 mph49%30.05 "Hg10 mi
4:58 PM84 °FSunny.12 mph52%30.06 "Hg10 mi
3:58 PM84 °FScattered clouds.14 mph56%30.08 "Hg10 mi
2:58 PM82 °FPassing clouds.14 mph58%30.10 "Hg10 mi
1:58 PM80 °FBroken clouds.14 mph67%30.14 "Hg10 mi
12:58 PM79 °FScattered clouds.15 mph65%30.15 "Hg10 mi
11:58 AM79 °FBroken clouds.10 mph72%30.15 "Hg10 mi
10:58 AM77 °FScattered clouds.12 mph72%30.14 "Hg10 mi
9:58 AM74 °FPassing clouds.8 mph79%30.14 "Hg10 mi
8:58 AM73 °FSunny.6 mph84%30.14 "Hg10 mi
7:58 AM69 °FScattered clouds.2 mph98%30.14 "Hg10 mi
6:58 AM68 °FLight rain. Passing clouds.No wind98%30.15 "Hg9 mi
5:58 AM68 °FLight rain. Partly cloudy.No wind93%30.14 "Hg10 mi
4:58 AM69 °FPartly cloudy.No wind86%30.13 "Hg10 mi
3:58 AM67 °FPassing clouds.3 mph93%30.13 "Hg10 mi
2:58 AM66 °FPassing clouds.2 mph90%30.12 "Hg10 mi
1:58 AM69 °FClear.2 mph83%30.13 "Hg10 mi
12:58 AM70 °FClear.3 mph78%30.15 "Hg10 mi
11:58 PM
Thu, May 28
71 °FClear.5 mph75%30.16 "Hg10 mi
10:58 PM73 °FClear.6 mph70%30.17 "Hg10 mi
Weather by CustomWeather, © 2015

See weather overviewHow to use our weather pages